This demonstration page uses our WeatherBlox Daily Observations layout. Learn more.

Left ArrowRight Arrow

44.8408, -93.29828

Hourly Observations for August 24, 2021

Temp ( °F °C ) Dew Point ( °F °C ) Humidity (%) Winds ( mph kmh ) Pressure ( in mb ) Visibility ( mi km ) Precip ( " mm )
12:53 am 00:53 Mostly Clear 76 24.4 72 22.2 88 88 S 3 6 29.88 1012 10 16 0.00 0.00
1:53 am 01:53 Partly Cloudy 75 23.9 72 22.2 90 90 ESE 3 6 29.87 1012 10 16 0.00 0.00
2:53 am 02:53 Partly Cloudy 75 23.9 72 22.2 90 90 ESE 5 7 29.87 1011 10 16 0.00 0.00
3:42 am 03:42 Partly Cloudy with Thunderstorms 74 23.3 72 22.2 94 94 E 3 6 29.84 1010 7 11 0.00 0.00
3:53 am 03:53 Mostly Cloudy with Thunderstorms 75 23.9 72 22.2 90 90 SSE 6 9 29.85 1011 7 11 0.00 0.00
4:16 am 04:16 Cloudy with Strong Thunderstorms 74 23.3 73 22.8 97 97 ESE 14 22 29.82 1010 2 3 0.14 3.56
4:27 am 04:27 Mostly Cloudy with Nearby Thunderstorms 74 23.3 73 22.8 97 97 ESE 14 22 29.81 1009 4 6 0.17 4.32
4:34 am 04:34 Mostly Cloudy with Nearby Thunderstorms 74 23.3 72 22.2 94 94 SE 6 9 29.80 1009 9 14 0.17 4.32
4:53 am 04:53 Mostly Cloudy with Nearby Thunderstorms 74 23.3 71 21.7 91 91 S 10 17 29.83 1010 10 16 0.17 4.32
5:01 am 05:01 Mostly Cloudy with Light Rain 74 23.3 71 21.7 91 91 ESE 10 17 29.80 1009 10 16 0.00 0.00
5:16 am 05:16 Cloudy with Nearby Thunderstorms 74 23.3 72 22.2 94 94 SE 10 17 29.81 1009 10 16 0.00 0.00
5:35 am 05:35 Cloudy with Light Rain 74 23.3 71 21.7 91 91 ESE 14 22 29.78 1008 10 16 0.00 0.00
5:53 am 05:53 Cloudy 73 22.8 67 19.4 81 81 ESE 7 11 29.77 1008 10 16 0.00 0.00
6:46 am 06:46 Cloudy with Nearby Thunderstorms 71 21.7 66 18.9 84 84 NW 24 39 29.85 1011 10 16 0.00 0.00
6:53 am 06:53 Cloudy with Strong Thunderstorms 66 18.9 65 18.3 96 96 NW 28 44 29.85 1011 1 2 0.11 2.79
7:02 am 07:02 Cloudy with Strong Thunderstorms 67 19.4 66 18.9 97 97 NW 9 15 29.90 1013 2 3 0.40 10.16
7:07 am 07:07 Cloudy with Strong Thunderstorms 66 18.9 66 18.9 100 100 NW 6 9 29.90 1013 5 8 0.48 12.19
7:22 am 07:22 Cloudy with Rain 67 19.4 65 18.3 93 93 NNE 6 9 29.88 1012 6 10 0.64 16.26
7:31 am 07:31 Cloudy with Thunderstorms 67 19.4 66 18.9 97 97 NNW 6 9 29.90 1013 8 13 0.65 16.51
7:40 am 07:40 Cloudy with Nearby Thunderstorms 67 19.4 66 18.9 97 97 NNW 10 17 29.90 1013 7 11 0.66 16.76
7:53 am 07:53 Cloudy with Nearby Thunderstorms 67 19.4 65 18.3 93 93 NNW 10 17 29.91 1013 5 8 0.68 17.27
8:03 am 08:03 Cloudy with Rain 67 19.4 65 18.3 93 93 N 10 17 29.89 1012 6 10 0.03 0.76
8:05 am 08:05 Cloudy with Nearby Thunderstorms 67 19.4 65 18.3 93 93 N 12 19 29.89 1012 7 11 0.03 0.76
8:25 am 08:25 Cloudy with Rain 66 18.9 64 17.8 93 93 NNE 13 20 29.86 1011 7 11 0.07 1.78
8:40 am 08:40 Cloudy with Nearby Thunderstorms 66 18.9 64 17.8 93 93 NE 10 17 29.85 1011 7 11 0.11 2.79
8:50 am 08:50 Cloudy with Thunderstorms 66 19 64 18 94 94 SSE 15 24 29.88 1012 7 11 0.14 3.56
8:53 am 08:53 Cloudy with Thunderstorms 66 18.9 64 17.8 93 93 SE 15 24 29.89 1012 7 11 0.16 4.06
9:00 am 09:00 Cloudy with Thunderstorms 66 18.9 64 17.8 93 93 ESE 15 24 29.87 1012 7 11 0.01 0.25
9:10 am 09:10 Cloudy with Thunderstorms 66 18.9 65 18.3 96 96 NNW 10 17 29.92 1013 7 11 0.02 0.51
9:21 am 09:21 Cloudy with Nearby Thunderstorms 66 18.9 65 18.3 96 96 N 9 15 29.93 1014 8 13 0.04 1.02
9:23 am 09:23 Cloudy with Thunderstorms 66 18.9 65 18.3 96 96 N 8 13 29.92 1013 8 13 0.04 1.02
9:43 am 09:43 Cloudy with Nearby Thunderstorms 66 18.9 64 17.8 93 93 N 14 22 29.89 1012 8 13 0.10 2.54
9:53 am 09:53 Mostly Cloudy with Nearby Thunderstorms 65 18.3 64 17.8 97 97 NNE 13 20 29.88 1012 9 14 0.11 2.79
10:08 am 10:08 Cloudy with Light Rain 66 18.9 64 17.8 93 93 SE 17 28 29.87 1012 9 14 0.01 0.25
10:13 am 10:13 Cloudy with Nearby Thunderstorms 66 18.9 64 17.8 93 93 SE 16 26 29.85 1011 9 14 0.01 0.25
10:19 am 10:19 Cloudy with Nearby Thunderstorms 66 18.9 64 17.8 93 93 SSE 14 22 29.86 1011 9 14 0.01 0.25
10:32 am 10:32 Cloudy with Thunderstorms 66 18.9 65 18.3 96 96 SSE 14 22 29.86 1011 9 14 0.02 0.51
10:49 am 10:49 Cloudy with Light Rain 66 19 64 18 94 94 SSE 21 33 29.80 1009 8 13 0.02 0.51
10:53 am 10:53 Cloudy with Light Rain 66 18.9 65 18.3 96 96 SE 28 44 29.80 1009 8 13 0.03 0.76
11:23 am 11:23 Mostly Cloudy with Nearby Thunderstorms 68 20 65 18.3 90 90 SSE 17 28 29.77 1008 10 16 0.01 0.25
11:38 am 11:38 Mostly Cloudy 68 20 65 18.3 90 90 SSE 16 26 29.75 1007 10 16 0.01 0.25
11:53 am 11:53 Mostly Cloudy 70 21.1 65 18.3 84 84 S 16 26 29.78 1009 10 16 0.01 0.25
12:53 pm 12:53 Mostly Cloudy 69 20.6 65 18.3 87 87 S 17 28 29.77 1008 10 16 0.00 0.00
1:53 pm 13:53 Mostly Cloudy 71 21.7 66 18.9 84 84 N 5 7 29.78 1008 10 16 0.00 0.00
2:53 pm 14:53 Mostly Cloudy 77 25 66 18.9 69 69 VRB 6 9 29.81 1010 10 16 0.00 0.00
3:53 pm 15:53 Mostly Cloudy 78 25.6 65 18.3 64 64 SSW 5 7 29.82 1010 10 16 0.00 0.00
4:53 pm 16:53 Partly Cloudy 79 26.1 66 18.9 65 65 Calm 29.83 1010 10 16 0.00 0.00
5:53 pm 17:53 Partly Cloudy 80 26.7 66 18.9 62 62 SW 5 7 29.83 1010 10 16 0.00 0.00
6:53 pm 18:53 Mostly Cloudy 79 26.1 65 18.3 62 62 S 3 6 29.84 1011 10 16 0.00 0.00
7:53 pm 19:53 Cloudy 77 25 66 18.9 69 69 S 6 9 29.85 1011 10 16 0.00 0.00
8:53 pm 20:53 Cloudy 76 24.4 66 18.9 72 72 S 7 11 29.88 1012 10 16 0.00 0.00
9:53 pm 21:53 Cloudy 76 24.4 66 18.9 72 72 S 7 11 29.89 1012 10 16 0.00 0.00
10:53 pm 22:53 Mostly Cloudy 75 23.9 66 18.9 74 74 S 5 7 29.90 1013 10 16 0.00 0.00
11:53 pm 23:53 Cloudy 74 23.3 66 18.9 76 76 S 5 7 29.92 1013 10 16 0.00 0.00

Powered by AerisWeather